sat.trackr.live / text

‹ back to catalog

AMC-6

NORAD 26580 · 2000-067A

PAYLOAD ACTIVE UNKNOWN

§ Identity

Operator
Country
SES
Launch date
2000-10-21
Launch site
TYMSC
Launch vehicle
Mass (kg)
RCS (m²)
13.61

Purposes: comms

External: N2YO · Heavens-Above · Gunter

§ Orbital elements

Epoch: 2026-09-19T16:19:47.508672Z

Period
1,436.09 min
Inclination
0.3876°
Eccentricity
0.0004324
Mean motion
1.00272415 rev/d
Perigee alt
35,768.2 km
Apogee alt
35,804.7 km
Semi-major
42,164.6 km
B*
0.0000e+0
RAAN
83.5793°
Arg perigee
103.4496°
Mean anomaly
281.4719°
Rev number
9,484

§ Raw data

AMC-61 26580U 00067A   26262.68041098  .00000084  00000+0  00000+0 0  99982 26580   0.3876  83.5793 0004324 103.4496 281.4719  1.00272415 94841

JSON: /api/v1/satellites/26580 · /tle

For live sub-satellite position, see the globe view (requires WebGL).

§ Visibility from observer

Set your observer location to see the next 7 days of passes ≥ 10°. The values pass through the URL so the page stays shareable.

No JS? Fill the form by hand. The geolocation button needs JavaScript.